TimeMST,TemperatureF,Dew PointF,Humidity,Sea Level PressureIn,VisibilityMPH,Wind Direction,Wind SpeedMPH,Gust SpeedMPH,PrecipitationIn,Events,Conditions,WindDirDegrees,DateUTC
12:53 AM,57.0,37.9,49,30.06,10.0,WSW,4.6,-,N/A,,Clear,250,2012-10-13 07:53:00
1:53 AM,57.0,37.9,49,30.06,10.0,WSW,6.9,-,N/A,,Clear,250,2012-10-13 08:53:00
2:53 AM,55.0,37.9,53,30.06,10.0,WSW,3.5,-,N/A,,Clear,240,2012-10-13 09:53:00
3:53 AM,53.1,37.0,55,30.07,10.0,SE,5.8,-,N/A,,Clear,140,2012-10-13 10:53:00
4:53 AM,52.0,36.0,54,30.08,10.0,SSE,4.6,-,N/A,,Clear,150,2012-10-13 11:53:00
5:53 AM,53.1,37.0,55,30.09,10.0,SSE,4.6,-,N/A,,Clear,150,2012-10-13 12:53:00
6:53 AM,50.0,36.0,59,30.11,10.0,South,4.6,-,N/A,,Clear,170,2012-10-13 13:53:00
7:53 AM,54.0,36.0,51,30.12,10.0,Calm,Calm,-,N/A,,Clear,0,2012-10-13 14:53:00
8:53 AM,60.1,37.0,42,30.12,10.0,Calm,Calm,-,N/A,,Clear,0,2012-10-13 15:53:00
9:53 AM,64.0,37.0,37,30.13,10.0,Calm,Calm,-,N/A,,Clear,0,2012-10-13 16:53:00
10:53 AM,68.0,36.0,31,30.11,10.0,East,3.5,-,N/A,,Clear,90,2012-10-13 17:53:00
11:53 AM,71.1,35.1,27,30.07,10.0,NNW,8.1,17.3,N/A,,Clear,340,2012-10-13 18:53:00
12:53 PM,73.0,35.1,25,30.04,10.0,Calm,Calm,-,N/A,,Clear,0,2012-10-13 19:53:00
1:53 PM,73.9,35.1,24,30.01,10.0,Calm,Calm,-,N/A,,Clear,0,2012-10-13 20:53:00
2:53 PM,77.0,35.1,22,29.99,10.0,North,9.2,-,N/A,,Clear,10,2012-10-13 21:53:00
3:53 PM,77.0,34.0,21,29.98,10.0,North,5.8,-,N/A,,Clear,350,2012-10-13 22:53:00
5:53 PM,73.0,34.0,24,29.99,10.0,NW,6.9,-,N/A,,Clear,320,2012-10-14 00:53:00
6:53 PM,71.1,34.0,26,30.01,10.0,Calm,Calm,-,N/A,,Clear,0,2012-10-14 01:53:00
7:53 PM,66.9,36.0,32,30.02,10.0,SW,3.5,-,N/A,,Clear,230,2012-10-14 02:53:00
8:53 PM,64.4,35.6,34,30.11,10.0,West,4.6,-,N/A,,Clear,260,2012-10-14 03:53:00
9:53 PM,62.6,35.6,37,30.12,10.0,SSW,5.8,-,N/A,,Clear,210,2012-10-14 04:53:00
10:53 PM,61.0,35.1,38,30.04,10.0,SSE,5.8,-,N/A,,Clear,160,2012-10-14 05:53:00
11:53 PM,60.1,33.1,36,30.03,10.0,SSE,4.6,-,N/A,,Clear,150,2012-10-14 06:53:00